Preview of NWS' New Version of Forecast
This preview is not operational and should not be used for support decisions.

Regional Weather Roundup (RWR)

Issued by National Weather Service (NWS)

                            
000
ASUS43 KDMX 180701
RWRIA 

WEATHER ROUNDUP FOR IOWA
NATIONAL WEATHER SERVICE DES MOINES IA
100 AM CST MON FEB 18 2019

NOTE: "FAIR" INDICATES FEW OR NO CLOUDS BELOW 12,000 FEET WITH NO
SIGNIFICANT WEATHER AND/OR OBSTRUCTIONS TO VISIBILITY.

* - THESE STATIONS ARE NOT NWS STATIONS...THUS NOT UNDER NWS
QUALITY CONTROL.  THEY ALSO DO NOT REPORT WEATHER SUCH 
AS PRECIPITATION OR FOG.  

IAZ001>003-012>014-020>022-031>034-043>046-180800-
   NORTHWEST IOWA
  
CITY           SKY/WX    TMP DP  RH WIND       PRES   REMARKS
CARROLL *      CLOUDY    19  19 100 N12       30.18R WCI   7          
CHEROKEE *     PTCLDY    17  16  94 N5        30.22R WCI  10          
DENISON *      LGT SNOW  16  14  93 N5        30.21R WCI   9          
LE MARS *      FLURRIES  12  12 100 N9        30.24R WCI   0          
ORANGE CITY *  CLOUDY    14  12  92 N9        30.22R WCI   2          
SHELDON *      FLURRIES  12  12 100 N8        30.21R WCI   1          
SIOUX CITY     LGT SNOW  14  10  84 NW16      30.25R FOG     WCI  -2  
SPENCER        CLOUDY    17  12  80 N8        30.21R WCI   7          
STORM LAKE *   LGT SNOW  16  16 100 N13       30.18R WCI   2          
$$
 
IAZ055>058-069>071-079>083-090>094-180800-
   SOUTHWEST IOWA
  
CITY           SKY/WX    TMP DP  RH WIND       PRES   REMARKS
ATLANTIC *     CLOUDY    18  18 100 NW13      30.19R WCI   4          
AUDUBON *      FLURRIES  12  10  92 CALM      30.18R                  
CLARINDA *     CLOUDY    14  12  92 NW14      30.23R WCI  -1          
COUNCIL BLFS * FLURRIES  16  16 100 NW9G15    30.21R WCI   4          
CRESTON *      FLURRIES  12  12 100 NW12      30.16R WCI  -2          
HARLAN  *      MOCLDY    14  12  92 NW15      30.20R WCI  -1          
LAMONI         CLEAR     11   8  88 W10       30.14R WCI  -3          
RED OAK *      FLURRIES  14  14 100 NW10      30.21R WCI   1          
SHENANDOAH *   PTCLDY    12  10  92 NW5       30.24R WCI   4          
$$
 
IAZ047>049-059>061-072>074-084-180800-
   CENTRAL IOWA
  
CITY           SKY/WX    TMP DP  RH WIND       PRES   REMARKS
AMES           LGT SNOW  19  16  88 N9        30.16R FOG     WCI   8  
ANKENY *       CLOUDY    19  18  93 N8        30.17R WCI   9          
BOONE *        LGT SNOW  19  19 100 N10       30.15R WCI   8          
CHARITON *     FLURRIES  18  18 100 NW8       30.13R WCI   7          
DES MOINES     FLURRIES  21  19  92 NW8       30.15R WCI  11          
GRINNELL*      LGT SNOW  17  16  96 N10       30.12R WCI   5          
KNOXVILLE *    FLURRIES  21  21 100 NW8       30.13R WCI  12          
MARSHALLTOWN   LGT SNOW  19  18  95 N10       30.13R FOG     WCI   7  
NEWTON *       FLURRIES  19  19 100 N10       30.13R WCI   8          
PELLA *        LGT SNOW  21  19  90 N8        30.15R WCI  11          
PERRY *        LGT SNOW  15  15  98 CALM      30.17R                  
$$
 
IAZ004>006-015-016-023>025-035-036-180800-
   NORTH CENTRAL IOWA
  
CITY           SKY/WX    TMP DP  RH WIND       PRES   REMARKS
ALGONA *       LGT SNOW  18  16  93 N7        30.17R WCI   8          
CLARION *      CLOUDY    18  16  93 N10       30.17R FOG     WCI   6  
ESTHERVILLE    LGT SNOW  15  12  88 N8        30.19R FOG     WCI   4  
FORT DODGE *   FLURRIES  17  15  92 N9        30.18R WCI   6          
MASON CITY     CLOUDY    14  12  92 N10       30.17R WCI   1          
FOREST CITY *  MOCLDY    18  14  86 N10       30.17R WCI   6          
IOWA FALLS *   FLURRIES  21  18  90 N7        30.16R WCI  12          
$$

IAZ007>011-017>019-026>030-037>042-050>054-066-180800-
   NORTHEAST IOWA
  
CITY           SKY/WX    TMP DP  RH WIND       PRES   REMARKS
CEDAR RAPIDS   LGT SNOW  20  18  92 N9        30.09R FOG     WCI   9  
CHARLES CITY * FLURRIES  16  12  86 N10       30.14R WCI   3          
CLINTON *      FLURRIES  20  17  88 N13       30.08R WCI   7          
DECORAH *      LGT SNOW  19  19 100 N9        30.11R WCI   9          
DUBUQUE        LGT SNOW  18  14  84 N13       30.06R FOG     WCI   5  
OELWEIN *      CLOUDY    19  18  93 N12       30.12R WCI   7          
WATERLOO       LGT SNOW  20  17  88 N9        30.14R FOG     WCI   9  
$$
 
IAZ064-065-067-068-078-180800-
   EAST CENTRAL IOWA
  
CITY           SKY/WX    TMP DP  RH WIND       PRES   REMARKS
DAVENPORT      CLOUDY    21  16  81 N12       30.08R WCI   9          
IOWA CITY      CLOUDY    22  18  85 N9        30.12R WCI  12          
MT. PLEASANT * LGT SNOW  25  25 100 N7        30.10R WCI  17          
MUSCATINE *    MIX PCPN  23  19  86 N6        30.11R WCI  16          
QUAD CITIES    CLOUDY    23  18  81 N7        30.07R WCI  15          
$$
 
IAZ062-063-075>077-085>089-095>099-180800-
   SOUTHEAST IOWA
  
CITY           SKY/WX    TMP DP  RH WIND       PRES   REMARKS
BURLINGTON     LGT SNOW  25  21  85 N10       30.08R FOG     WCI  15  
FAIRFIELD *    CLOUDY    23  21  93 N8        30.10R WCI  14          
KEOKUK *       FLURRIES  25  23  93 W10       30.09R WCI  15          
OSKALOOSA *    FLURRIES  23  21  93 N8        30.12R WCI  14          
OTTUMWA        FLURRIES  24  21  88 N8        30.12R WCI  15          
WASHINGTON *   MIX PCPN  23  21  93 N8        30.11R WCI  14          
$$

ABBREVIATIONS USED IN REMARKS
   TC - TEMPERATURES IN CELSIUS
  WCI - WIND CHILL INDEX
   HX - HEAT INDEX
  VSB - VISIBILITY  
$$